Location: Sternwarte ZA, Rosenfeld-Brittheim
(48.2889°N, 8.6789°E)
Time: 19:39:25
(UTC+02:00)

ISS - Pass Details

Date: 21 July 2019
Orbit: 409 x 418 km, 51.6° (Epoch: 20 July)

Event Time Altitude Azimuth Distance (km) Brightness Sun altitude
Rises 23:47:18 0° 276° (W) 2,353 0.5 -17.5°
Reaches altitude 10° 23:49:27 10° 283° (WNW) 1,489 -0.5 -17.6°
Maximum altitude 23:52:41 45° 358° (N) 578 -2.6 -17.8°
Drops below altitude 10° 23:55:54 10° 72° (ENE) 1,484 -1.0 -18.1°
Enters shadow 23:56:36 - 75° (ENE) 1,759 -0.7 -18.1°
